User: anonymous   Login
Location: Unspecified
(0.0000°N, 0.0000°E)
Time: 23:34:31
(UTC+00:00)
Language:

STPSAT 1 - Orbit

View from above orbital plane
View from above orbital plane
View from above satellite
View from above satellite

Ground track
Ground track

The orbit data is extracted from the following two-line orbital elements,

1 30775U 07006D   18142.44505993 +.00000955 +00000-0 +38143-4 0  9992
2 30775 035.4288 161.7778 0002580 130.9416 229.1531 15.26096267619418
Epoch (UTC): 22 May 2018 10:40:53
Eccentricity: 0.0002580
inclination: 35.4288°
perigee height: 486 km
apogee height: 489 km
right ascension of ascending node: 161.7778°
argument of perigee: 130.9416°
revolutions per day: 15.26096267
mean anomaly at epoch: 229.1531°
orbit number at epoch: 61941

The dashed part of the orbit path shows where the satellite is in the earth's shadow,  

DLR